Date,TemperatureHighF,TemperatureAvgF,TemperatureLowF,DewpointHighF,DewpointAvgF,DewpointLowF,HumidityHigh,HumidityAvg,HumidityLow,PressureMaxIn,PressureMinIn,WindSpeedMaxMPH,WindSpeedAvgMPH,GustSpeedMaxMPH,PrecipitationSumIn
2013-6-1,109.9,93.2,74.2,55.0,47.4,42.0,48,24,10,29.39,29.25,5,1,0,0.00
2013-6-2,107.7,94.7,77.6,48.0,37.8,28.0,28,15,8,29.32,29.18,13,3,0,0.00
2013-6-3,103.6,90.3,74.7,47.0,40.4,33.0,35,19,9,29.36,29.21,11,2,0,0.00
2013-6-4,103.1,89.0,71.3,47.0,40.5,32.0,39,20,10,29.41,29.30,7,2,0,0.00
2013-6-5,108.2,85.8,72.7,43.0,23.7,-99.9,31,13,7,29.45,29.30,8,-83,0,0.00
2013-6-6,111.3,94.3,76.7,41.0,35.2,27.0,27,13,7,29.38,29.24,6,1,0,0.00
2013-6-7,113.5,96.0,79.0,46.0,32.7,25.0,29,12,6,29.32,29.19,7,2,0,0.00
2013-6-8,104.4,93.0,77.9,55.0,42.0,27.0,33,18,9,29.36,29.22,12,3,0,0.00
2013-6-9,104.6,83.2,74.0,50.0,24.9,-99.9,42,15,9,29.44,29.33,8,-94,0,0.00
2013-6-10,109.3,91.7,71.1,41.0,29.8,21.0,28,13,5,29.42,29.30,7,1,0,0.00
2013-6-11,110.8,86.8,78.3,47.0,21.7,-99.9,21,11,6,29.45,29.33,7,-90,0,0.00
2013-6-12,107.1,94.2,78.6,52.0,43.9,34.0,33,18,12,29.46,29.35,11,2,0,0.00
2013-6-13,104.9,93.6,78.5,52.0,44.1,36.0,34,19,12,29.48,29.32,11,2,0,0.00
2013-6-14,106.2,91.7,76.5,50.0,41.7,28.0,32,19,8,29.42,29.27,13,2,0,0.00
2013-6-15,105.4,92.1,75.1,45.0,35.3,27.0,32,15,7,29.42,29.32,10,2,0,0.00
2013-6-16,108.2,93.4,76.1,43.0,28.4,20.0,28,11,5,29.49,29.36,6,1,0,0.00
2013-6-17,109.1,93.6,75.8,46.0,34.6,24.0,26,14,7,29.47,29.32,10,2,0,0.00
2013-6-18,109.6,92.9,74.9,43.0,33.4,24.0,28,14,6,29.39,29.24,12,2,0,0.00
2013-6-19,107.1,92.6,76.8,46.0,31.9,22.0,25,13,5,29.34,29.22,8,1,0,0.00
2013-6-20,106.2,91.7,75.1,51.0,39.7,32.0,42,18,8,29.36,29.25,12,2,0,0.00
2013-6-21,106.5,91.5,75.3,47.0,38.7,21.0,30,17,8,29.40,29.26,7,2,0,0.00
2013-6-22,107.9,92.3,74.7,51.0,40.3,25.0,28,17,8,29.39,29.25,8,2,0,0.00
2013-6-23,104.6,84.0,72.0,50.0,29.0,-99.9,36,16,10,29.34,29.20,10,-86,0,0.00
2013-6-24,104.9,89.5,73.0,50.0,45.3,36.0,42,23,12,29.40,29.28,8,1,0,0.00
2013-6-25,104.1,90.4,73.3,60.0,48.6,43.0,47,26,13,29.47,29.36,10,1,0,0.00
2013-6-26,107.1,95.8,82.4,47.0,39.6,24.0,24,15,8,29.53,29.42,10,2,0,0.00
2013-6-27,111.6,94.0,74.9,56.0,45.5,26.0,29,19,12,29.59,29.44,10,1,0,0.00
2013-6-28,117.0,101.6,85.1,58.0,47.0,37.0,33,17,7,29.47,29.27,7,1,0,0.00
2013-6-29,113.5,101.1,90.1,59.0,51.0,45.0,28,19,10,29.34,29.25,12,3,0,0.00
2013-6-30,112.6,99.1,87.2,61.0,56.1,49.0,35,24,16,29.37,29.23,13,3,0,0.00